Regional Weather Roundup
Issued by NWS Nashville, TN

Home | Current Version | Previous Version | Text Only | Print | Product List | Glossary On
Versions: 1 2 3 4 5 6 7 8 9 10 11 12 13 14 15 16 17 18 19 20 21 22 23 24 25 26 27 28
000
ASUS44 KOHX 212110
RWROHX
MIDDLE TENNESSEE HOURLY WEATHER ROUNDUP
NATIONAL WEATHER SERVICE NASHVILLE TN
400 PM CDT FRI JUL 21 2017

NOTE: "FAIR" INDICATES FEW OR NO CLOUDS BELOW 12,000 FEET WITH
NO SIGNIFICANT WEATHER AND/OR OBSTRUCTIONS TO VISIBILITY.

* THESE REPORTS ARE NOT UNDER NWS QUALITY CONTROL AND MAY NOT
  REPORT WEATHER SUCH AS PRECIPITATION AND FOG.


TNZ005>011-023>034-057-059-062>066-078-080-212200
...NORTHERN MIDDLE TENNESSEE...

CITY           SKY/WX    TMP DP  RH WIND       PRES   REMARKS
CLARKSVILLE    SUNNY     93  74  53 SW6       29.98F HX 103
CROSSVILLE     SUNNY     90  67  46 NW3       30.07F HX  93
GALLATIN       SUNNY     95  72  46 VRB6      30.01F HX 103
DICKSON        SUNNY     92  72  51 VRB3      30.01F HX  99
LEBANON        MOSUNNY   96  72  45 SW5       29.98F HX 104
NASHVILLE      PTSUNNY   95  70  44 S5        29.99F HX 101
PORTLAND       SUNNY     93  73  52 CALM      29.99F HX 102
SMYRNA         MOSUNNY   96  74  48 E7        29.99F HX 107
SPARTA         SUNNY     91  73  55 W6        30.01F HX 100
WEST NASHVILLE SUNNY     95  73  49 SW7       29.97F HX 105
$$
TNZ056-058-060-061-075>077-079-093>097-212200
...SOUTHERN MIDDLE TENNESSEE...

CITY           SKY/WX    TMP DP  RH WIND       PRES   REMARKS
COLUMBIA       SUNNY     93  72  49 CALM      29.98F HX 100
FAYETTEVILLE   SUNNY     91  72  52 VRB5      30.01F HX  98
MCMINNVILLE    SUNNY     93  73  52 CALM      30.02F HX 102
MURFREESBORO   MOSUNNY   94  70  45 CALM      29.98F HX 100
PULASKI        PTSUNNY   95  70  43 NW5       29.99F HX 101
SHELBYVILLE    SUNNY     91  72  52 SW5       30.00F HX  98
TULLAHOMA        N/A     91  64  40 W5        30.03F HX  93
WINCHESTER     SUNNY     91  72  52 W6        30.01F HX  98
$$


...KEY TO REMARKS...
VSB - VISIBILITY IN MILES
WCI - WIND CHILL INDEX
HX  - HEAT INDEX





USA.gov is the U.S. government's official web portal to all federal, state and local government web resources and services.